Theta_e
311 310 310 309 308 306 305 305 306 307 305 304 303 303 302 303 303 302 301 302 302 302 301 302 302 301 301 302 302 302 303 303 303 303 303 302 301 302 301 302 301 302 304
310 308 307 305 305 303 298 297 298 303 304 303 300 300 301 301 301 301 300 300 300 300 300 301 301 301 302 302 301 301 301 301 301 300 300 301 300 300 300 300 301 302 303
305 304 303 302 302 300 298 298 303 301 300 300 301 302 301 302 302 302 302 302 302 301 301 301 301 301 301 300 300 300 300 300 300 300 300 300 300 300 300 299 300 301 301
308 306 305 304 303 302 301 300 302 301 301 301 301 301 301 301 301 302 302 303 303 302 302 301 301 301 300 298 298 298 299 299 299 298 299 299 299 299 299 299 299 299 299
304 304 304 304 303 302 299 297 302 302 302 302 302 302 301 302 302 301 301 302 303 303 303 302 301 301 299 297 297 297 297 297 297 298 298 298 298 299 299 299 299 298 298
305 305 305 305 306 305 303 302 300 300 301 302 302 302 302 303 302 299 298 299 301 303 304 304 303 301 300 299 299 297 296 296 296 297 297 297 298 298 297 297 297 296 296
305 305 307 306 304 304 304 301 303 304 303 302 303 304 304 304 304 300 299 299 299 302 304 304 304 303 301 301 300 297 296 296 296 297 297 297 297 296 295 295 295 294 294
306 305 305 305 305 305 304 305 305 304 304 305 305 305 305 305 304 303 301 300 301 303 304 304 303 303 302 300 299 297 296 296 296 296 296 296 295 294 295 294 294 294 294
306 305 305 305 305 305 306 306 306 305 306 305 305 305 306 306 305 304 304 303 303 304 304 303 303 303 301 299 298 297 296 295 295 295 295 294 294 295 295 294 294 295 295
306 306 306 305 305 306 306 306 306 306 305 305 306 306 306 306 306 306 305 305 304 304 303 302 302 301 299 298 297 296 295 294 295 294 294 295 296 295 294 294 295 295 294
306 306 306 306 306 306 307 307 306 307 307 307 307 307 307 308 308 307 305 305 304 303 302 302 302 300 299 297 296 294 294 293 293 294 295 296 295 294 294 294 294 294 294
306 306 307 307 307 307 308 309 308 308 308 308 308 308 308 308 308 306 306 304 302 299 300 301 300 299 298 295 294 295 294 293 294 295 296 296 295 294 294 293 293 293 294
307 307 307 308 308 308 308 309 309 309 309 308 307 307 307 307 307 306 304 303 301 299 299 299 297 296 295 295 296 295 295 295 295 295 295 295 295 294 293 294 293 293 294
308 308 308 307 307 308 309 309 309 309 307 308 307 307 307 306 304 302 302 301 300 299 298 297 295 294 296 297 296 296 296 295 295 295 294 295 294 294 293 294 293 292 293
308 308 308 308 308 308 309 309 308 308 307 306 305 305 303 302 302 301 301 299 298 296 295 293 295 296 297 296 296 295 295 294 294 294 294 294 293 293 293 292 292 292 292
308 309 308 308 308 309 309 307 307 305 303 302 301 300 301 300 299 298 297 296 295 293 292 294 296 296 296 295 294 294 294 294 294 293 293 293 293 293 292 292 291 292 292
310 310 309 309 309 309 308 308 307 306 303 301 300 298 296 295 295 295 294 293 292 293 294 296 296 296 295 294 294 293 293 293 293 293 293 292 292 293 292 292 291 291 292
310 309 308 308 308 307 307 306 306 305 304 304 302 300 298 297 295 293 293 294 295 297 295 296 295 295 295 294 293 293 293 293 292 292 292 292 292 292 292 292 290 291 291
308 308 308 306 305 305 305 306 304 304 303 301 302 300 298 296 295 295 295 295 296 296 296 296 295 295 295 294 293 292 292 292 291 291 291 291 292 292 292 291 290 290 291
306 306 304 302 305 305 305 304 304 303 301 301 300 299 298 297 296 297 297 297 296 296 296 296 295 295 294 294 293 292 292 292 291 291 291 291 291 291 291 290 290 290 291
305 306 305 303 304 304 304 304 303 301 301 300 299 299 298 296 296 296 297 297 296 296 296 295 295 294 294 294 292 291 291 291 291 291 290 290 290 291 290 289 289 290 291
305 305 304 304 304 305 304 303 302 301 301 300 300 299 298 297 297 298 297 297 296 296 295 295 295 294 294 293 292 291 291 290 290 290 290 289 289 290 289 288 288 289 291
305 304 304 304 304 304 303 302 301 301 301 300 300 299 298 298 298 298 297 296 296 295 295 294 294 294 294 293 292 290 290 290 290 290 288 288 289 288 287 287 288 289 290
302 304 304 303 303 304 303 303 301 301 300 300 300 299 299 298 298 297 297 296 296 295 294 293 294 294 293 292 291 290 290 289 289 288 286 287 287 287 286 287 288 288 290
303 302 303 303 303 303 303 302 301 301 300 300 300 300 299 298 298 297 297 297 296 294 293 293 293 293 293 291 290 290 290 289 288 286 287 289 289 287 286 286 287 288 289
304 304 303 303 303 303 303 303 302 301 301 300 300 299 298 298 298 298 297 296 295 294 294 293 293 292 291 290 290 289 288 288 287 287 288 289 288 286 285 286 287 288 289
Wind_Speed
11 10 9 8 7 7 7 8 8 9 7 6 4 3 4 4 5 5 6 5 5 5 6 6 7 9 8 7 8 8 9 12 17 21 23 26 31 31 34 34 34 32 27
15 13 9 7 6 5 7 9 9 9 7 7 6 5 4 4 5 4 6 4 4 4 5 6 6 7 9 10 11 12 12 14 18 25 26 27 29 31 32 37 36 30 31
8 4 4 3 1 2 4 8 9 7 6 6 6 5 5 4 2 3 3 3 2 3 4 5 7 8 10 10 12 12 14 16 19 22 27 27 29 29 32 36 34 34 33
10 10 6 7 7 4 3 7 5 6 6 5 5 5 4 3 4 3 0 2 3 5 6 7 7 8 11 13 13 13 15 19 20 24 26 28 28 29 29 32 38 36 40
6 5 3 1 3 7 4 7 8 10 10 9 7 6 6 6 4 3 4 4 5 7 9 9 9 14 17 17 22 16 17 20 22 25 27 29 29 31 32 33 37 39 45
6 8 5 7 4 2 6 6 7 9 7 7 9 8 7 5 12 12 8 8 8 10 10 13 14 15 11 19 20 22 26 24 25 27 29 31 33 31 34 36 39 42 47
7 5 5 5 13 9 8 8 8 10 9 9 9 9 9 10 15 12 11 13 15 12 14 15 16 15 20 16 17 21 23 24 26 29 33 33 34 31 37 42 41 44 50
7 7 8 8 7 8 8 9 10 10 11 11 11 10 11 12 15 17 15 16 17 15 16 16 19 20 20 23 23 25 27 25 26 27 31 31 33 40 34 40 40 45 46
7 8 8 8 8 8 9 9 10 11 11 12 11 12 13 13 16 19 20 16 17 18 20 21 21 22 23 26 29 27 30 31 28 28 32 39 34 31 38 36 41 43 47
7 6 6 7 8 8 9 10 10 11 12 12 13 14 16 17 17 20 20 16 18 20 20 20 20 22 23 26 32 34 34 31 28 32 32 27 26 32 36 32 35 40 47
6 6 7 7 7 8 10 12 13 14 14 16 16 17 18 18 17 18 20 21 20 19 18 20 19 25 27 31 36 35 24 29 30 29 27 26 29 37 34 37 38 45 47
7 7 6 7 8 10 12 13 13 15 16 18 19 20 19 17 18 22 19 24 21 20 19 19 19 26 31 33 26 24 28 29 27 28 30 30 32 37 39 41 42 45 40
7 7 8 10 12 13 15 16 17 18 19 22 22 24 24 23 20 23 24 21 16 20 16 18 22 26 30 27 24 27 26 24 27 29 31 31 32 36 40 37 45 44 42
9 11 11 14 16 17 17 16 17 19 22 20 22 23 18 13 14 17 15 9 10 14 16 17 24 29 22 24 22 23 23 24 26 27 30 30 33 35 35 37 45 43 44
13 15 15 16 19 18 18 17 17 20 21 24 24 23 20 13 14 15 12 11 14 17 25 23 20 18 19 21 21 22 23 23 24 26 28 31 31 34 34 40 45 41 43
16 15 18 18 19 14 14 13 12 15 9 10 11 10 6 8 11 9 11 15 19 20 20 17 15 19 21 22 23 23 23 23 24 25 27 28 31 31 35 45 44 40 41
16 16 16 17 14 12 10 10 11 13 8 10 8 7 9 10 13 14 16 18 18 10 14 16 18 20 21 22 22 23 23 23 23 24 26 28 29 30 34 38 44 40 41
12 13 12 12 11 10 11 12 8 7 9 11 10 10 13 12 14 12 11 15 11 12 12 17 19 20 21 22 22 23 23 23 23 24 25 26 27 29 31 36 41 40 40
11 10 9 10 11 12 8 7 7 8 7 8 7 11 12 12 16 12 11 13 10 15 16 17 19 20 21 22 22 22 22 23 24 24 24 25 26 28 30 34 38 37 37
10 13 14 8 9 8 9 8 9 8 9 9 10 9 8 7 12 14 14 12 16 17 18 19 20 20 21 22 22 22 22 22 23 23 23 24 25 27 28 34 34 33 34
9 10 13 10 10 9 9 11 11 11 11 11 11 12 14 13 15 11 12 14 16 17 18 18 20 20 21 21 21 21 21 22 22 22 23 23 25 27 29 31 29 29 28
10 10 11 11 10 13 13 13 14 14 14 13 12 14 15 13 10 11 14 15 16 17 18 19 20 20 20 21 21 21 21 21 21 21 22 24 24 26 30 28 26 26 26
11 12 13 14 14 15 15 16 17 18 17 16 15 15 16 12 14 16 16 16 17 19 18 19 19 20 20 20 20 19 20 20 19 19 25 24 24 27 26 25 24 23 24
13 14 15 16 17 19 18 19 19 21 22 21 20 19 17 17 18 18 18 17 18 17 17 19 20 20 21 21 19 18 20 24 28 26 29 28 27 26 23 21 20 20 21
14 15 17 18 20 21 23 24 25 25 25 23 22 21 16 16 17 16 15 14 16 19 18 18 20 21 21 21 21 19 24 25 28 30 28 31 30 25 19 18 18 19 17
17 18 20 22 23 25 27 29 28 28 26 26 26 23 17 16 18 17 19 18 18 17 18 19 20 21 21 20 20 21 25 30 31 26 30 31 27 20 17 18 17 16 15
Wind_Direction
132 131 125 128 124 132 134 133 139 138 131 117 100 92 98 101 98 112 100 89 80 59 49 33 15 8 2 351 343 335 321 311 301 302 304 308 306 314 315 315 316 320 313
141 134 129 112 105 106 144 154 152 148 150 144 146 148 140 127 121 121 120 100 84 64 33 26 7 358 0 352 332 327 325 315 308 306 308 310 311 314 309 312 313 310 303
157 155 145 90 22 162 170 156 155 167 152 149 163 164 160 156 145 141 124 97 61 11 8 355 352 351 346 322 328 326 321 315 309 307 307 309 305 309 306 307 308 309 300
148 150 185 188 192 194 184 156 150 169 177 180 174 187 185 186 193 185 288 354 357 333 326 330 322 314 315 320 331 327 320 315 316 309 308 307 308 309 306 306 306 306 300
116 151 182 213 193 241 202 175 162 197 197 192 198 204 209 225 252 243 289 314 306 306 301 304 308 296 336 321 330 316 316 313 311 310 307 309 309 309 310 309 303 302 295
219 201 192 215 206 176 243 217 217 220 213 225 231 223 234 244 260 274 295 308 296 288 294 296 302 313 306 317 319 315 316 311 307 306 305 304 304 305 305 304 300 302 298
178 212 159 218 236 230 234 230 215 237 233 232 242 249 251 256 263 273 296 303 305 289 287 288 293 295 297 304 296 299 311 306 303 301 297 299 299 304 303 301 300 296 292
190 206 199 216 221 233 231 237 241 241 240 241 248 256 259 264 271 284 293 294 292 285 282 284 291 292 292 291 296 300 310 308 301 295 294 292 294 300 299 304 306 307 302
196 204 207 213 213 222 232 241 243 244 246 249 254 258 262 265 270 280 285 284 286 288 287 284 287 288 295 293 296 301 305 305 303 297 289 287 301 299 305 312 307 302 298
197 211 218 219 222 232 241 245 243 240 244 248 256 259 261 264 266 272 279 283 286 289 286 288 297 289 286 295 301 306 304 304 304 302 305 304 301 300 312 310 303 299 298
206 212 214 221 233 243 248 248 247 247 246 251 254 257 261 265 272 268 272 286 282 283 280 288 289 292 295 299 301 306 303 316 309 306 308 304 304 309 311 310 306 306 306
218 207 213 226 235 244 253 256 258 261 264 266 267 268 271 275 272 277 269 290 289 269 280 285 284 283 286 300 310 313 313 314 302 303 303 306 309 311 312 312 310 310 307
207 221 235 241 251 260 264 269 275 279 283 285 281 280 273 276 272 276 285 291 282 284 285 287 292 298 308 309 309 308 310 302 304 305 307 307 309 311 315 310 313 318 318
235 248 259 269 276 273 277 275 276 280 282 284 281 279 287 281 291 292 292 274 307 302 300 292 294 302 309 309 306 307 306 304 305 305 307 309 312 313 315 313 321 323 324
253 260 267 275 277 279 277 275 281 283 282 289 290 291 279 292 287 285 257 250 274 279 291 303 306 306 305 306 306 306 307 308 308 308 310 313 315 317 315 317 325 327 326
261 271 272 276 280 281 279 289 284 287 294 311 303 298 277 294 290 293 286 281 287 300 304 305 306 307 308 309 310 310 310 311 311 311 312 314 317 319 320 322 327 330 329
267 272 280 286 286 295 287 283 278 286 291 312 316 333 328 296 299 299 298 298 304 297 296 305 304 308 309 310 310 311 311 313 314 313 313 315 318 320 324 323 328 332 332
278 278 283 282 275 277 287 279 265 269 290 277 282 310 321 320 327 319 322 328 316 317 301 302 306 308 309 310 311 311 312 313 315 314 316 318 320 323 326 326 329 332 333
277 280 281 281 284 279 272 260 271 264 276 290 281 292 294 314 327 322 313 327 301 309 305 304 305 307 309 310 311 311 311 313 314 317 318 319 322 325 327 325 329 333 337
275 268 283 267 266 275 255 252 253 248 263 273 277 277 284 297 305 302 293 294 296 301 304 305 306 307 309 310 311 311 311 312 315 318 318 320 322 325 325 325 330 333 338
262 268 277 268 262 264 251 248 253 252 260 266 270 262 244 284 299 284 286 292 296 299 301 302 305 307 309 310 310 310 310 312 315 317 318 320 322 324 322 324 329 334 339
255 263 268 262 260 251 256 259 254 254 258 263 267 266 272 287 281 279 289 293 294 296 297 299 301 304 307 309 308 307 309 311 314 316 315 319 322 318 320 325 331 333 338
259 262 263 264 262 258 262 257 258 259 259 262 263 265 269 270 278 285 288 293 294 293 294 298 298 301 304 305 305 305 307 308 306 312 318 318 316 316 321 325 328 331 335
256 262 266 269 267 262 263 261 258 256 256 256 263 263 264 272 274 277 277 285 288 284 292 296 297 299 302 303 302 303 300 294 299 307 312 313 316 318 318 323 324 327 331
260 262 265 269 271 271 264 261 258 258 259 258 254 251 250 264 269 272 279 283 288 288 296 292 299 300 300 299 300 301 286 292 301 310 312 316 318 317 317 318 320 323 331
266 270 273 275 274 272 271 270 257 259 267 261 260 253 243 258 262 262 280 283 292 293 296 295 297 299 299 300 297 290 293 298 305 309 315 319 318 315 312 314 318 322 324